Location: Franzen
(48.6167°N, 15.3833°E)
Time: 10:57:22
(UTC+00:00)

Cosmos 1666 Rocket - Pass Details

Date: 22 April 2021
Orbit: 604 x 633 km, 82.5° (Epoch: 16 May)

Event Time Altitude Azimuth Distance (km) Brightness Sun altitude
Rises 22:07:17 0° 347° (NNW) 2,938 8.3 -27.9°
Reaches altitude 10° 22:09:33 10° 345° (NNW) 2,023 7.2 -28.0°
Enters shadow 22:13:00 49° 321° (NW) 813 4.4 -28.1°
